Location: *
(44.4660°S, 175.7835°W)
Time: 02:09:30
(UTC+00:00)

Daily predictions for brighter satellites

Satellite Brightness Start Highest point End
(mag) Time Altitude Azimuth Time Altitude Azimuth Time Altitude Azimuth
Envisat 3.6 05:38:44 10° SSE 05:43:30 37° E 05:48:13 10° NNE
STARLINK-53 3.8 05:39:42 10° SW 05:43:46 57° SSE 05:47:48 10° ENE
STARLINK-1017 3.9 05:40:31 10° SW 05:44:41 54° SSE 05:48:49 10° ENE
STARLINK-1196 3.1 05:41:45 10° NW 05:44:52 58° NE 05:48:03 10° ESE
STARLINK-1186 3.1 05:42:12 10° NW 05:45:20 59° NE 05:48:29 10° ESE
Lacrosse 5 rocket 2.1 05:41:27 10° SW 05:45:27 37° SSE 05:49:11 10° E
STARLINK-1185 3.1 05:42:39 10° NW 05:45:47 59° NE 05:48:56 10° ESE
STARLINK-1175 3.1 05:43:06 10° NW 05:46:14 60° NE 05:49:24 10° ESE
STARLINK-1014 3.8 05:42:30 10° SW 05:46:31 54° SSE 05:50:29 10° ENE
STARLINK-1147 3.0 05:43:32 10° NW 05:46:40 61° NE 05:49:50 10° ESE
Cosmos 1954 Rocket 4.1 05:41:28 10° SSW 05:46:53 72° ESE 05:52:13 10° NNE
STARLINK-1146 3.0 05:44:00 10° NW 05:47:07 61° NE 05:50:18 10° ESE
STARLINK-1152 3.0 05:44:25 10° NW 05:47:34 62° NE 05:50:44 10° ESE
STARLINK-1195 3.0 05:44:53 10° NW 05:48:02 63° NE 05:51:13 10° ESE
STARLINK-1137 3.0 05:45:19 10° NW 05:48:28 63° NE 05:51:39 10° ESE
STARLINK-1142 3.0 05:45:47 10° NW 05:48:57 64° NE 05:52:07 10° ESE
STARLINK-1127 3.0 05:46:13 10° NW 05:49:22 64° NE 05:52:33 10° ESE
STARLINK-1184 3.0 05:46:41 10° NW 05:49:49 65° NE 05:53:00 10° ESE
Cosmos 44 4.0 05:45:02 10° SSW 05:49:57 38° SE 05:54:38 10° ENE
STARLINK-1193 3.0 05:47:08 10° NW 05:50:18 66° NE 05:53:28 10° ESE
Cosmos 1844 Rocket 3.1 05:45:06 10° NW 05:50:42 68° WSW 05:56:19 10° SSE
STARLINK-1194 3.0 05:47:33 10° NW 05:50:42 66° NE 05:53:53 10° ESE
Cosmos 1626 3.9 05:51:00 10° ENE 05:52:45 13° E 05:54:30 10° ESE
Cosmos 2228 3.3 05:49:03 10° S 05:53:12 43° ESE 05:57:17 10° NNE
STARLINK-24 3.7 05:49:24 10° SW 05:53:30 65° SSE 05:57:33 10° ENE
YAOGAN 6 3.2 05:55:03 10° SSE 05:58:23 35° E 06:01:42 10° NNE
STARLINK-1150 3.3 05:55:46 10° NW 05:59:30 81° NE 06:03:16 10° ESE
STARLINK-1048 3.7 05:55:26 10° SW 05:59:39 66° SSE 06:03:50 10° ENE
Cosmos 1340 Rocket 3.4 05:57:20 10° S 06:01:15 38° ESE 06:05:06 10° NE
Okean-O 3.6 05:57:42 10° SE 06:01:28 25° E 06:05:10 10° NNE
SMAP 3.1 05:57:01 10° SSE 06:01:46 68° ENE 06:06:26 10° N
STARLINK-1049 3.7 06:00:25 10° SW 06:04:39 70° SSE 06:08:48 10° ENE
Cosmos 1908 3.4 06:01:08 10° S 06:04:55 47° ESE 06:08:39 10° NNE
Cosmos 1242 Rocket 3.0 06:02:01 10° NNW 06:05:42 68° WSW 06:09:28 10° S
STARLINK-61 4.1 06:02:03 10° WSW 06:06:00 57° NW 06:09:56 10° NE
Cosmos 1726 2.3 06:02:30 10° S 06:06:20 78° W 06:10:05 10° N
Cosmos 1674 2.7 06:04:11 10° N 06:07:54 56° E 06:11:42 10° SSE
Kosmos-1783 4.0 06:01:17 10° NW 06:08:38 74° SW 06:10:57 10° SE
STARLINK-1051 3.6 06:05:24 10° SW 06:09:39 75° SSE 06:13:36 11° ENE
Cosmos 1606 Rocket 3.5 06:06:05 10° S 06:10:31 71° E 06:14:54 10° NNE
STARLINK-1151 3.2 06:07:24 10° WNW 06:11:01 87° SSW 06:14:25 12° SE
FALCON 9 R/B 3.9 06:04:11 10° NW 06:11:05 19° N 06:14:39 10° NE
NOAA 12 4.2 06:06:39 10° SSE 06:12:00 59° E 06:17:17 10° N
SL-14 R/B 4.4 06:09:22 10° NE 06:12:27 23° E 06:15:33 10° SE
STARLINK-1133 3.3 06:09:06 10° WNW 06:12:43 85° SW 06:16:03 12° SE
STARLINK-1170 3.5 06:09:24 10° WNW 06:13:15 79° SSW 06:16:55 12° SE
CZ-4B R/B 3.8 06:08:18 10° S 06:13:43 61° WSW 06:18:59 10° NNW
CZ-2C R/B 4.0 06:09:56 10° NE 06:14:10 43° ESE 06:18:26 10° S
STARLINK-1139 3.3 06:10:50 10° WNW 06:14:27 82° SSW 06:17:43 13° SE
Cosmos 1892 Rocket 3.7 06:11:20 10° N 06:15:38 51° E 06:19:58 10° SSE
STARLINK-1174 3.3 06:12:35 10° WNW 06:16:12 80° SSW 06:19:24 13° SE
STARLINK-1010 3.8 06:13:04 10° WSW 06:17:23 83° NW 06:21:27 11° NE
CZ-2C R/B 3.3 06:13:32 10° NE 06:18:27 35° ESE 06:23:31 10° S
Meteor 1-24 Rocket 4.0 06:13:48 10° NNE 06:18:55 42° E 06:24:15 10° SSE
Cosmos 371 Rocket 3.4 06:14:10 10° N 06:18:57 54° ENE 06:23:47 10° SSE
STARLINK-1028 3.6 06:15:22 10° SW 06:19:36 87° SSE 06:23:10 14° ENE
STARLINK-1180 3.4 06:16:07 10° WNW 06:19:45 75° SSW 06:22:49 14° SE
STARLINK-1132 3.5 06:16:41 10° WNW 06:20:26 72° SSW 06:23:41 14° SE
Shenzhou-11 Module 1.8 06:18:15 10° WNW 06:20:53 58° N 06:22:12 25° ENE
STARLINK-1153 3.4 06:17:55 10° WNW 06:21:33 73° SSW 06:24:34 15° SE
STARLINK-1178 4.4 06:18:41 10° NNW 06:22:31 34° NE 06:24:54 19° E
STARLINK-81 3.6 06:19:07 10° WSW 06:23:15 88° NW 06:26:32 15° NE
STARLINK-1177 3.6 06:20:02 10° WNW 06:23:46 68° SSW 06:26:53 15° SE
STARLINK-1021 3.6 06:20:21 10° WSW 06:24:35 87° NW 06:27:57 16° NE
STARLINK-54 3.6 06:21:00 10° WSW 06:25:07 79° NW 06:28:29 15° NE
Cosmos 1939 Rocket 4.0 06:22:08 10° SE 06:25:34 24° E 06:28:55 10° NNE
STARLINK-77 3.6 06:22:26 10° WSW 06:26:34 83° NW 06:29:45 16° NE
CZ-4 R/B 2.2 06:23:06 10° SE 06:26:42 28° E 06:30:11 10° NNE
STARLINK-1167 3.7 06:22:58 10° WNW 06:26:43 65° SSW 06:29:42 15° SE
USA 81 4.0 06:22:01 10° N 06:27:19 73° E 06:32:41 10° S
STARLINK-1120 4.3 06:23:36 10° NNW 06:27:30 38° NE 06:29:43 22° E
Cosmos 1420 Rocket 4.4 06:22:23 10° NNW 06:27:34 68° WSW 06:32:50 10° SSE
STARLINK-25 3.6 06:24:06 10° WSW 06:28:13 81° NW 06:31:20 17° NE
Cosmos 1953 4.4 06:25:04 10° SSW 06:28:42 31° W 06:32:16 10° NNW
Cosmos 2082 Rocket 2.8 06:23:43 10° S 06:28:56 35° SE 06:32:23 19° ENE
STARLINK-1019 3.7 06:25:19 10° WSW 06:29:33 81° NW 06:32:44 17° NE
STARLINK-71 3.7 06:25:58 10° WSW 06:30:04 72° NW 06:33:16 16° NE
Lacrosse 5 2.3 06:26:06 10° WNW 06:31:12 64° SW 06:36:22 10° SE
STARLINK-79 3.7 06:27:24 10° WSW 06:31:31 77° NW 06:34:31 18° NE
STARLINK-1131 4.2 06:28:28 10° NNW 06:32:26 41° NE 06:34:29 24° E
SL-23 DEB 3.4 06:29:14 10° WSW 06:32:29 74° NNW 06:34:33 21° NE
STARLINK-78 3.7 06:29:05 10° WSW 06:33:11 74° NW 06:36:07 18° NE
STARLINK-1168 3.7 06:29:45 10° WNW 06:33:21 60° SSW 06:35:54 18° SE
STARLINK-1149 3.9 06:30:42 10° WNW 06:34:31 58° SSW 06:37:20 17° SE
MOS 1 Rocket 3.8 06:29:47 10° NE 06:34:31 41° ESE 06:39:03 10° S
STARLINK-1012 3.8 06:30:18 10° WSW 06:34:32 75° NW 06:37:31 19° NE
STARLINK-57 3.8 06:30:50 10° WSW 06:34:56 69° NW 06:37:52 18° NE
STARLINK-1164 3.7 06:31:37 10° WNW 06:35:14 58° SSW 06:37:42 19° SE
STARLINK-1023 3.9 06:31:47 10° WSW 06:36:02 69° NW 06:39:09 18° NE
STARLINK-49 3.8 06:32:24 10° WSW 06:36:30 70° NW 06:39:19 19° NE
STARLINK-1060 4.4 06:32:37 10° SW 06:36:38 40° SSE 06:38:30 25° ESE
Cosmos 1833 Rocket 2.7 06:31:21 10° SSW 06:37:01 61° ESE 06:42:19 11° NE
STARLINK-1182 3.8 06:33:31 10° WNW 06:37:07 57° SSW 06:39:31 19° SE
STARLINK-1190 4.0 06:33:23 10° NNW 06:37:24 45° NE 06:39:17 27° E
STARLINK-1163 3.9 06:33:41 10° WNW 06:37:25 55° SSW 06:39:59 19° SE
STARLINK-27 3.8 06:34:02 10° WSW 06:38:07 68° NW 06:40:53 20° NE
Cosmos 1850 Rocket 4.0 06:33:00 10° SSW 06:38:25 81° ESE 06:43:42 10° NNE
STARLINK-74 3.8 06:35:42 10° WSW 06:39:47 67° NW 06:42:29 20° NE
STARLINK-1172 3.9 06:37:35 10° WNW 06:41:11 53° SSW 06:43:26 21° SE
STARLINK-39 3.9 06:37:21 10° WSW 06:41:25 64° NW 06:44:04 20° NE
STARLINK-1030 4.3 06:37:36 10° SW 06:41:38 42° SSE 06:43:18 28° ESE
STARLINK-31 3.9 06:39:03 10° WSW 06:43:07 62° NW 06:45:42 21° NE
STARLINK-1145 3.9 06:39:34 10° WNW 06:43:09 52° SSW 06:45:18 22° SE
STARLINK-1026 4.0 06:40:17 10° WSW 06:44:28 64° NW 06:47:05 22° NE
STARLINK-69 4.1 06:40:54 10° WSW 06:44:55 56° NW 06:47:35 20° NNE
STARLINK-1161 4.0 06:41:31 10° WNW 06:45:06 50° SSW 06:47:12 22° SE
Nadezhda 1 Rocket 4.1 06:39:30 10° S 06:45:56 84° W 06:52:20 10° N
STARLINK-21 4.0 06:42:22 10° WSW 06:46:25 58° NW 06:48:54 22° NNE
Meteor 2-5 Rocket 3.8 06:40:58 10° N 06:46:37 85° W 06:52:28 10° S
STARLINK-1020 4.2 06:42:34 10° SW 06:46:38 44° SSE 06:48:04 32° ESE
CZ-2D R/B 3.8 06:42:59 10° SSE 06:46:39 35° E 06:50:14 10° NNE
STARLINK-1160 4.0 06:43:30 10° WNW 06:47:05 49° SSW 06:49:06 23° SE
STARLINK-45 4.3 06:44:15 10° WSW 06:48:15 51° NW 06:50:48 20° NNE
STARLINK-1013 4.1 06:45:16 10° WSW 06:49:25 58° NW 06:51:52 23° NNE
STARLINK-70 4.2 06:45:50 10° WSW 06:49:49 51° NW 06:52:16 21° NNE
Okean O Rocket 4.2 06:46:31 10° SSW 06:49:58 22° WSW 06:53:23 10° WNW
Cosmos 1745 Rocket 4.1 06:43:54 10° N 06:50:04 80° W 06:56:20 10° S
Cosmos 332 Rocket 3.7 06:46:13 10° NNW 06:51:06 82° ENE 06:56:00 10° SSE
STARLINK-76 4.2 06:47:22 10° WSW 06:51:23 53° NW 06:53:42 23° NNE
STARLINK-1052 4.1 06:47:32 10° SW 06:51:39 47° SSE 06:52:51 36° ESE
CSL-04 Rocket 4.2 06:47:39 10° SSE 06:52:45 36° E 06:57:41 10° NNE
Cosmos 44 Rocket 4.4 06:48:35 10° SSW 06:52:59 28° SE 06:53:56 26° ESE
STARLINK-23 4.2 06:49:01 10° WSW 06:53:01 51° NW 06:55:16 23° NNE
COSMOS 2406 3.7 06:48:17 10° SSW 06:53:57 63° WNW 06:59:33 10° N
YAOGAN 1 2.8 06:49:57 10° SSE 06:54:11 45° E 06:58:22 10° N
STARLINK-1009 4.2 06:50:15 10° WSW 06:54:23 54° NW 06:56:38 24° NNE
Cosmos 2181 Rocket 4.3 06:48:16 10° S 06:54:34 47° ESE 06:59:25 17° NE
STARLINK-32 4.3 06:50:40 10° WSW 06:54:39 49° NW 06:56:51 23° NNE
STARLINK-1007 4.3 06:51:35 10° WSW 06:55:45 52° NW 06:58:03 24° NNE
STARLINK-40 4.3 06:52:20 10° WSW 06:56:18 48° NW 06:58:27 24° NNE
Cosmos 1331 Rocket 4.0 06:51:13 10° N 06:56:19 55° ENE 07:01:31 10° SSE
STARLINK-44 4.4 06:54:01 10° WSW 06:57:58 46° NW 07:00:02 24° NNE
STARLINK-1015 4.4 06:55:14 10° WSW 06:59:19 49° NW 07:01:24 25° NNE
Exosat Rocket 4.1 06:55:26 10° SSW 07:00:47 54° ESE 07:04:28 26° NE
STARLINK-1033 3.9 06:57:29 10° SW 07:01:37 53° SSE 07:02:25 45° ESE
Cosmos 2278 Rocket 2.3 06:57:29 10° NNW 07:03:11 79° WSW 07:08:57 10° SSE
Cosmos 1607 4.1 06:57:49 10° SW 07:04:03 73° WNW 07:09:18 15° NNE
Lacrosse 4 Rocket 4.0 07:02:27 10° W 07:05:26 19° SW 07:08:25 10° S
Okean 1-7 Rocket 4.4 07:01:39 10° NNW 07:06:06 54° WSW 07:10:39 10° S
BREEZE-M DEB (TANK) 2.6 07:03:52 10° WNW 07:06:41 83° SSW 07:09:47 28° ESE
Genesis I 4.1 07:03:59 10° SSW 07:07:16 34° SSE 07:07:16 34° SSE
STARLINK-1129 3.5 07:03:54 10° NW 07:08:05 75° NE 07:08:47 59° E
STARLINK-1027 3.8 07:04:27 10° SW 07:08:45 60° SSE 07:09:21 53° ESE
STARLINK-1024 3.7 07:07:25 10° SW 07:11:37 60° SSE 07:11:59 57° SE
STARLINK-1134 3.5 07:08:54 10° NW 07:13:06 81° NE 07:13:37 67° ESE
Cosmos 2058 Rocket 4.1 07:09:22 10° SSW 07:13:43 48° W 07:18:04 10° NNW
USA 267 4.5 07:11:14 19° SE 07:14:43 31° S 07:20:20 10° SW
STARLINK-1031 3.6 07:12:09 10° SW 07:16:29 69° SSE 07:16:47 66° ESE
STARLINK-1035 3.6 07:12:24 10° SW 07:16:37 64° SSE 07:16:46 63° SE
STARLINK-1135 3.5 07:13:51 10° NW 07:18:03 87° NNE 07:18:22 76° ESE
Cosmos 1300 2.9 07:14:25 10° SSW 07:18:19 71° W 07:19:41 38° N
USA 229 DEB 3.9 07:11:03 10° NW 07:18:43 88° SW 07:26:06 10° SE
USA 229 3.9 07:11:10 10° NW 07:18:50 89° SW 07:26:14 10° SE
Meteor 2-1 Rocket 4.2 07:15:57 10° S 07:21:35 62° ESE 07:23:01 47° NE
STARLINK-1032 3.6 07:17:22 10° SW 07:21:33 68° SSE 07:21:33 68° SSE
STARLINK-1162 3.5 07:17:57 10° WNW 07:22:11 87° SSW 07:22:24 80° SE
STARLINK-1141 3.5 07:18:50 10° WNW 07:23:02 87° SSW 07:23:09 84° SSE
Cosmos 304 Rocket 3.8 07:19:02 10° NNW 07:23:52 80° WSW 07:28:47 10° SSE
NOAA 11 4.2 07:18:59 10° SSE 07:24:30 81° WSW 07:29:58 10° NNW
Lacrosse 5 rocket 2.4 07:20:47 10° WSW 07:24:37 37° NW 07:25:32 32° NNW
STARLINK-1011 3.7 07:22:21 10° SW 07:26:20 70° S 07:26:20 70° S
STARLINK-1157 3.6 07:22:56 10° WNW 07:27:10 81° SSW 07:27:11 81° SSW
Cosmos 1626 3.3 07:23:57 10° NNW 07:27:34 44° WSW 07:31:14 10° S
Cosmos 1110 Rocket 4.1 07:22:27 10° NNW 07:27:39 73° WSW 07:32:56 10° SSE
STARLINK-1140 3.6 07:23:48 10° WNW 07:27:56 80° SW 07:27:56 80° SW
IRIDIUM 104 4.2 07:22:55 10° N 07:28:10 77° E 07:33:29 10° S
NOSS 3-1 (A) 4.0 07:19:42 10° NNW 07:28:27 78° ENE 07:35:34 13° SE
STARLINK-1036 3.8 07:27:19 10° SW 07:31:07 68° SSW 07:31:07 68° SSW
STARLINK-1159 3.8 07:27:54 10° WNW 07:31:57 74° WSW 07:31:57 74° WSW
STARLINK-1156 3.8 07:28:47 10° WNW 07:32:43 71° WSW 07:32:43 71° WSW
STARLINK-1044 4.0 07:32:19 10° SW 07:35:55 62° SW 07:35:55 62° SW
STARLINK-1171 4.0 07:32:55 10° WNW 07:36:46 65° WSW 07:36:46 65° WSW
IRIDIUM 114 4.3 07:32:02 10° N 07:37:18 88° W 07:42:39 10° S
Alouette 2 Rocket 3.8 07:33:45 10° S 07:37:08 64° S 07:37:08 64° S
Okean-O 4.3 07:33:53 10° S 07:37:59 34° WSW 07:42:00 10° NW
STARLINK-1148 4.0 07:33:48 10° WNW 07:37:31 63° WSW 07:37:31 63° WSW
STARLINK-1047 4.2 07:37:17 10° WSW 07:40:41 56° WSW 07:40:41 56° WSW
STARLINK-1037 4.2 07:37:41 10° WSW 07:41:04 56° WSW 07:41:04 56° WSW
STARLINK-1155 4.2 07:37:55 10° WNW 07:41:33 57° WSW 07:41:33 57° WSW
Cosmos 1812 Rocket 3.9 07:37:40 10° S 07:41:32 63° SSW 07:41:32 63° SSW
STARLINK-1158 4.3 07:38:47 10° WNW 07:42:17 55° W 07:42:17 55° W
Cosmos 1626 Rocket 4.4 07:42:07 10° NNW 07:46:21 49° WSW 07:50:41 10° S
IRIDIUM 103 4.5 07:41:15 10° N 07:46:30 74° W 07:51:49 10° S
STARLINK-1166 4.5 07:42:56 10° WNW 07:46:20 50° WSW 07:46:20 50° WSW
H-2A R/B 4.4 07:48:48 10° SSE 07:49:11 12° SSE 07:49:11 12° SSE
CZ-2C R/B 4.1 07:53:42 10° NNW 07:58:41 35° W 08:03:50 10° SSW
CZ-4 R/B 3.6 07:58:12 10° SSW 08:01:37 25° WSW 08:04:57 10° WNW
Cosmos 2074 Rocket 4.1 08:05:13 67° SSE 08:05:13 67° SSE 08:10:39 10° S
Cosmos 2082 Rocket 3.3 08:07:49 10° SW 08:13:03 38° WNW 08:14:17 34° NW
Lacrosse 5 3.7 08:10:51 10° WSW 08:15:02 24° SSW 08:15:37 24° S
CENTAUR R/B 4.4 08:31:44 10° SSW 08:35:02 17° S 08:35:02 17° S
USA 267 4.2 08:58:35 40° SSW 08:58:35 40° SSW 09:03:09 10° SW
